This is the latest recevied weather packets stored in our database for station/object N1YZ. If no packets are shown the sender has not sent any weather packets the latest 10 day(s).
| Time | Temp. | Humidity | Pressure | Rain* | Wind** | Luminosity | Snow |
|---|---|---|---|---|---|---|---|
| 1777559325 | 16.11° C | 99% | 1032.9 hPa | 0 mm | - | 108 W/m² | - |
| 1777559020 | 15.56° C | 99% | 1032.8 hPa | 0 mm | - | 393 W/m² | - |
| 1777558716 | 15.56° C | 99% | 1033 hPa | 0 mm | - | 419 W/m² | - |
| 1777558412 | 15° C | 99% | 1033 hPa | 0 mm | - | 68 W/m² | - |
| 1777558109 | 15.56° C | 99% | 1033.3 hPa | 0 mm | - | 105 W/m² | - |
| 1777557805 | 15° C | 99% | 1033.1 hPa | 0 mm | - | 110 W/m² | - |
| 1777557502 | 15° C | 99% | 1032.8 hPa | 0 mm | - | 77 W/m² | - |
| 1777557198 | 15° C | 99% | 1032.9 hPa | 0 mm | - | 58 W/m² | - |
| 1777556894 | 14.44° C | 99% | 1032.9 hPa | 0 mm | - | 44 W/m² | - |
| 1777556590 | 14.44° C | 99% | 1032.9 hPa | 0 mm | - | 41 W/m² | - |
| 1777556289 | 15° C | 99% | 1033.1 hPa | 0 mm | - | 32 W/m² | - |
| 1777555986 | 15° C | 99% | 1032.9 hPa | 0 mm | - | 22 W/m² | - |
| 1777555681 | 15° C | 99% | 1032.8 hPa | 0 mm | - | 17 W/m² | - |
| 1777555377 | 15° C | 99% | 1032.8 hPa | 0 mm | - | 17 W/m² | - |
| 1777555074 | 15° C | 99% | 1032.6 hPa | 0 mm | - | 31 W/m² | - |
| 1777554772 | 15° C | 99% | 1032.4 hPa | 0 mm | - | 25 W/m² | - |
| 1777554469 | 15° C | 99% | 1032.4 hPa | 0 mm | - | 29 W/m² | - |
| 1777554165 | 15° C | 99% | 1032.4 hPa | 0 mm | - | 17 W/m² | - |
| 1777553862 | 15° C | 99% | 1032.7 hPa | 0 mm | - | 13 W/m² | - |
| 1777553558 | 15° C | 99% | 1032.6 hPa | 0 mm | - | 14 W/m² | - |
| 1777553253 | 15° C | 99% | 1032.9 hPa | 0 mm | - | 15 W/m² | - |
| 1777552944 | 15° C | 99% | 1032.6 hPa | 0 mm | - | 15 W/m² | - |
| 1777552639 | 15° C | 99% | 1032.6 hPa | 0 mm | - | 18 W/m² | - |
| 1777552337 | 14.44° C | 99% | 1032.5 hPa | 0 mm | - | 18 W/m² | - |
| 1777552033 | 15° C | 99% | 1032.6 hPa | 0 mm | - | 14 W/m² | - |
* Rain latest hour (hover to see other rain measurements)
** Current wind speed in m/s (hover to see current wind gust speed)